Time,TemperatureF,DewpointF,PressureIn,WindDirection,WindDirectionDegrees,WindSpeedMPH,WindSpeedGustMPH,Humidity,HourlyPrecipIn,Conditions,Clouds,dailyrainin,SoftwareType,DateUTC
2013-06-02 00:03:00,61.0,-99.9,29.86,SSE,166,9.0,-999.0,88,-99.99,,,-99.99,,2013-06-02 04:03:00,
2013-06-02 00:13:00,61.0,57.0,29.86,SSE,166,9.0,-999.0,88,-99.99,,,-99.99,,2013-06-02 04:13:00,
2013-06-02 00:23:00,60.0,56.0,29.86,South,188,8.0,-999.0,88,-99.99,,,-99.99,,2013-06-02 04:23:00,
2013-06-02 00:33:00,60.0,56.0,29.85,South,179,8.0,-999.0,88,-99.99,,,-99.99,,2013-06-02 04:33:00,
2013-06-02 00:42:00,60.0,56.0,29.85,South,179,8.0,-999.0,88,-99.99,,,-99.99,,2013-06-02 04:42:00,
2013-06-02 00:53:00,60.0,57.0,29.85,SSW,207,7.0,-999.0,89,-99.99,,,-99.99,,2013-06-02 04:53:00,
2013-06-02 01:03:00,60.0,57.0,29.85,SSW,192,8.0,-999.0,89,-99.99,,,-99.99,,2013-06-02 05:03:00,
2013-06-02 01:12:00,60.0,57.0,29.85,SSW,192,8.0,-999.0,89,-99.99,,,-99.99,,2013-06-02 05:12:00,
2013-06-02 01:22:00,59.0,56.0,29.83,South,169,8.0,-999.0,89,-99.99,,,-99.99,,2013-06-02 05:22:00,
2013-06-02 01:32:00,59.0,56.0,29.83,SSW,204,9.0,-999.0,90,-99.99,,,-99.99,,2013-06-02 05:32:00,
2013-06-02 01:42:00,59.0,56.0,29.83,SSW,204,9.0,-999.0,90,-99.99,,,-99.99,,2013-06-02 05:42:00,
2013-06-02 01:52:00,59.0,56.0,29.83,South,186,8.0,-999.0,91,-99.99,,,-99.99,,2013-06-02 05:52:00,
2013-06-02 02:01:00,59.0,56.0,29.81,SW,219,9.0,-999.0,89,-99.99,,,-99.99,,2013-06-02 06:01:00,
2013-06-02 02:12:00,59.0,56.0,29.81,SW,219,9.0,-999.0,89,-99.99,,,-99.99,,2013-06-02 06:12:00,
2013-06-02 02:21:00,58.0,55.0,29.82,WSW,237,10.0,-999.0,91,-99.99,,,-99.99,,2013-06-02 06:21:00,
2013-06-02 02:32:00,58.0,55.0,29.82,SW,227,9.0,-999.0,91,-99.99,,,-99.99,,2013-06-02 06:32:00,
2013-06-02 02:42:00,58.0,55.0,29.82,SW,227,9.0,-999.0,91,-99.99,,,-99.99,,2013-06-02 06:42:00,
2013-06-02 02:52:00,58.0,55.0,29.82,SW,219,7.0,-999.0,90,-99.99,,,-99.99,,2013-06-02 06:52:00,
2013-06-02 03:02:00,58.0,55.0,29.81,SW,216,9.0,-999.0,90,-99.99,,,-99.99,,2013-06-02 07:02:00,
2013-06-02 03:11:00,58.0,55.0,29.81,SW,216,9.0,-999.0,90,-99.99,,,-99.99,,2013-06-02 07:11:00,
2013-06-02 03:22:00,58.0,55.0,29.81,SSW,209,8.0,-999.0,89,-99.99,,,-99.99,,2013-06-02 07:22:00,
2013-06-02 03:32:00,59.0,55.0,29.80,SW,234,7.0,-999.0,88,-99.99,,,-99.99,,2013-06-02 07:32:00,
2013-06-02 03:42:00,59.0,55.0,29.80,SW,234,7.0,-999.0,88,-99.99,,,-99.99,,2013-06-02 07:42:00,
2013-06-02 03:52:00,59.0,55.0,29.80,SW,219,8.0,-999.0,88,-99.99,,,-99.99,,2013-06-02 07:52:00,
2013-06-02 04:02:00,59.0,55.0,29.81,SW,215,9.0,-999.0,88,-99.99,,,-99.99,,2013-06-02 08:02:00,
2013-06-02 04:12:00,59.0,55.0,29.81,SW,215,9.0,-999.0,88,-99.99,,,-99.99,,2013-06-02 08:12:00,
2013-06-02 04:21:00,59.0,56.0,29.81,SSW,205,9.0,-999.0,89,-99.99,,,-99.99,,2013-06-02 08:21:00,
2013-06-02 04:32:00,59.0,56.0,29.81,SSW,213,9.0,-999.0,89,-99.99,,,-99.99,,2013-06-02 08:32:00,
2013-06-02 04:42:00,59.0,56.0,29.81,SSW,213,9.0,-999.0,89,-99.99,,,-99.99,,2013-06-02 08:42:00,
2013-06-02 04:52:00,59.0,56.0,29.80,SW,216,10.0,-999.0,89,-99.99,,,-99.99,,2013-06-02 08:52:00,
2013-06-02 05:01:00,59.0,56.0,29.81,SW,217,10.0,-999.0,89,-99.99,,,-99.99,,2013-06-02 09:01:00,
2013-06-02 05:11:00,59.0,56.0,29.81,SW,217,10.0,-999.0,89,-99.99,,,-99.99,,2013-06-02 09:11:00,
2013-06-02 05:21:00,59.0,56.0,29.81,SSE,148,9.0,-999.0,89,-99.99,,,-99.99,,2013-06-02 09:21:00,
2013-06-02 05:33:00,59.0,56.0,29.80,SSW,205,9.0,-999.0,89,-99.99,,,-99.99,,2013-06-02 09:33:00,
2013-06-02 05:42:00,59.0,56.0,29.80,SSW,205,9.0,-999.0,89,-99.99,,,-99.99,,2013-06-02 09:42:00,
2013-06-02 05:53:00,59.0,56.0,29.80,SSW,211,9.0,-999.0,89,-99.99,,,-99.99,,2013-06-02 09:53:00,
2013-06-02 06:02:00,59.0,56.0,29.80,SW,227,10.0,-999.0,89,-99.99,,,-99.99,,2013-06-02 10:02:00,
2013-06-02 06:12:00,59.0,56.0,29.80,SW,227,10.0,-999.0,89,-99.99,,,-99.99,,2013-06-02 10:12:00,
2013-06-02 06:22:00,59.0,56.0,29.80,SW,224,12.0,-999.0,89,-99.99,,,-99.99,,2013-06-02 10:22:00,
2013-06-02 06:33:00,60.0,56.0,29.80,SW,223,11.0,-999.0,88,-99.99,,,-99.99,,2013-06-02 10:33:00,
2013-06-02 06:42:00,60.0,56.0,29.80,SW,223,11.0,-999.0,88,-99.99,,,-99.99,,2013-06-02 10:42:00,
2013-06-02 06:52:00,60.0,56.0,29.80,SW,229,11.0,-999.0,88,-99.99,,,-99.99,,2013-06-02 10:52:00,
2013-06-02 07:02:00,60.0,56.0,29.80,WSW,256,12.0,-999.0,88,-99.99,,,-99.99,,2013-06-02 11:02:00,
2013-06-02 07:12:00,60.0,56.0,29.80,WSW,256,12.0,-999.0,88,-99.99,,,-99.99,,2013-06-02 11:12:00,
2013-06-02 07:22:00,60.0,57.0,29.80,SW,219,13.0,-999.0,89,-99.99,,,-99.99,,2013-06-02 11:22:00,
2013-06-02 07:32:00,60.0,57.0,29.80,WSW,238,12.0,-999.0,90,-99.99,,,-99.99,,2013-06-02 11:32:00,
2013-06-02 07:42:00,60.0,57.0,29.80,WSW,238,12.0,-999.0,90,-99.99,,,-99.99,,2013-06-02 11:42:00,
2013-06-02 07:52:00,60.0,57.0,29.80,West,265,14.0,-999.0,89,-99.99,,,-99.99,,2013-06-02 11:52:00,
2013-06-02 08:02:00,60.0,57.0,29.80,SW,221,14.0,-999.0,89,-99.99,,,-99.99,,2013-06-02 12:02:00,
2013-06-02 08:11:00,60.0,57.0,29.80,SW,221,14.0,-999.0,89,-99.99,,,-99.99,,2013-06-02 12:11:00,
2013-06-02 08:22:00,60.0,57.0,29.80,SW,221,14.0,-999.0,89,-99.99,,,-99.99,,2013-06-02 12:22:00,
2013-06-02 08:32:00,61.0,57.0,29.80,WSW,249,14.0,-999.0,88,-99.99,,,-99.99,,2013-06-02 12:32:00,
2013-06-02 08:42:00,61.0,57.0,29.80,WSW,249,14.0,-999.0,88,-99.99,,,-99.99,,2013-06-02 12:42:00,
2013-06-02 08:52:00,61.0,57.0,29.80,WSW,239,16.0,-999.0,88,-99.99,,,-99.99,,2013-06-02 12:52:00,
2013-06-02 09:01:00,61.0,57.0,29.81,SW,235,14.0,-999.0,88,-99.99,,,-99.99,,2013-06-02 13:01:00,
2013-06-02 09:12:00,61.0,57.0,29.81,SW,235,14.0,-999.0,88,-99.99,,,-99.99,,2013-06-02 13:12:00,
2013-06-02 09:21:00,62.0,58.0,29.81,SW,229,12.0,-999.0,86,-99.99,,,-99.99,,2013-06-02 13:21:00,
2013-06-02 09:32:00,62.0,58.0,29.81,WSW,241,16.0,-999.0,86,-99.99,,,-99.99,,2013-06-02 13:32:00,
2013-06-02 09:42:00,62.0,58.0,29.81,WSW,241,16.0,-999.0,86,-99.99,,,-99.99,,2013-06-02 13:42:00,
2013-06-02 09:52:00,59.0,56.0,29.82,SW,226,11.0,-999.0,91,-99.99,,,-99.99,,2013-06-02 13:52:00,
2013-06-02 10:02:00,59.0,55.0,29.82,SW,235,10.0,-999.0,87,-99.99,,,-99.99,,2013-06-02 14:02:00,
2013-06-02 10:11:00,59.0,55.0,29.82,SW,235,10.0,-999.0,87,-99.99,,,-99.99,,2013-06-02 14:11:00,
2013-06-02 10:21:00,58.0,52.0,29.83,SSW,212,9.0,-999.0,81,-99.99,,,-99.99,,2013-06-02 14:21:00,
2013-06-02 10:32:00,58.0,51.0,29.83,SW,216,9.0,-999.0,77,-99.99,,,-99.99,,2013-06-02 14:32:00,
2013-06-02 10:42:00,58.0,51.0,29.83,SW,216,9.0,-999.0,77,-99.99,,,-99.99,,2013-06-02 14:42:00,
2013-06-02 10:52:00,59.0,52.0,29.83,SW,233,9.0,-999.0,77,-99.99,,,-99.99,,2013-06-02 14:52:00,
2013-06-02 11:01:00,60.0,55.0,29.83,SW,226,9.0,-999.0,85,-99.99,,,-99.99,,2013-06-02 15:01:00,
2013-06-02 11:11:00,60.0,55.0,29.83,SW,226,9.0,-999.0,85,-99.99,,,-99.99,,2013-06-02 15:11:00,
2013-06-02 11:22:00,60.0,57.0,29.83,SW,236,10.0,-999.0,91,-99.99,,,-99.99,,2013-06-02 15:22:00,
2013-06-02 11:33:00,60.0,57.0,29.83,West,263,10.0,-999.0,91,-99.99,,,-99.99,,2013-06-02 15:33:00,
2013-06-02 11:43:00,60.0,57.0,29.83,SW,234,11.0,-999.0,90,-99.99,,,-99.99,,2013-06-02 15:43:00,
2013-06-02 11:53:00,60.0,57.0,29.83,SW,234,11.0,-999.0,90,-99.99,,,-99.99,,2013-06-02 15:53:00,
2013-06-02 12:03:00,59.0,56.0,29.83,SW,234,12.0,-999.0,90,-99.99,,,-99.99,,2013-06-02 16:03:00,
2013-06-02 12:13:00,59.0,56.0,29.83,SW,234,12.0,-999.0,90,-99.99,,,-99.99,,2013-06-02 16:13:00,
2013-06-02 12:23:00,59.0,56.0,29.83,SW,225,9.0,-999.0,91,-99.99,,,-99.99,,2013-06-02 16:23:00,
2013-06-02 12:33:00,60.0,57.0,29.83,WSW,245,9.0,-999.0,91,-99.99,,,-99.99,,2013-06-02 16:33:00,
2013-06-02 12:42:00,60.0,57.0,29.83,WSW,245,9.0,-999.0,91,-99.99,,,-99.99,,2013-06-02 16:42:00,
2013-06-02 12:52:00,62.0,59.0,29.83,SW,215,9.0,-999.0,90,-99.99,,,-99.99,,2013-06-02 16:52:00,
2013-06-02 13:02:00,64.0,60.0,29.83,WSW,240,12.0,-999.0,86,-99.99,,,-99.99,,2013-06-02 17:02:00,
2013-06-02 13:12:00,64.0,60.0,29.83,WSW,240,12.0,-999.0,86,-99.99,,,-99.99,,2013-06-02 17:12:00,
2013-06-02 13:23:00,65.0,60.0,29.82,SW,214,11.0,-999.0,83,-99.99,,,-99.99,,2013-06-02 17:23:00,
2013-06-02 13:32:00,65.0,60.0,29.82,WSW,243,11.0,-999.0,83,-99.99,,,-99.99,,2013-06-02 17:32:00,
2013-06-02 13:42:00,66.0,59.0,29.82,SW,215,11.0,-999.0,79,-99.99,,,-99.99,,2013-06-02 17:42:00,
2013-06-02 13:52:00,66.0,59.0,29.82,SW,215,11.0,-999.0,79,-99.99,,,-99.99,,2013-06-02 17:52:00,
2013-06-02 14:02:00,63.0,59.0,29.82,SW,235,9.0,-999.0,87,-99.99,,,-99.99,,2013-06-02 18:02:00,
2013-06-02 14:11:00,63.0,59.0,29.82,SW,235,9.0,-999.0,87,-99.99,,,-99.99,,2013-06-02 18:11:00,
2013-06-02 14:21:00,60.0,57.0,29.83,SW,234,8.0,-999.0,90,-99.99,,,-99.99,,2013-06-02 18:21:00,
2013-06-02 14:32:00,59.0,52.0,29.83,SW,234,9.0,-999.0,77,-99.99,,,-99.99,,2013-06-02 18:32:00,
2013-06-02 14:42:00,59.0,51.0,29.83,WSW,251,7.0,-999.0,74,-99.99,,,-99.99,,2013-06-02 18:42:00,
2013-06-02 14:52:00,59.0,51.0,29.83,WSW,251,7.0,-999.0,74,-99.99,,,-99.99,,2013-06-02 18:52:00,
2013-06-02 15:01:00,60.0,51.0,29.83,SW,225,8.0,-999.0,72,-99.99,,,-99.99,,2013-06-02 19:01:00,
2013-06-02 15:11:00,60.0,51.0,29.83,SW,225,8.0,-999.0,72,-99.99,,,-99.99,,2013-06-02 19:11:00,
2013-06-02 15:21:00,59.0,51.0,29.83,WSW,238,10.0,-999.0,74,-99.99,,,-99.99,,2013-06-02 19:21:00,
2013-06-02 15:32:00,59.0,50.0,29.83,SW,233,10.0,-999.0,72,-99.99,,,-99.99,,2013-06-02 19:32:00,
2013-06-02 15:42:00,59.0,50.0,29.83,SW,233,10.0,-999.0,72,-99.99,,,-99.99,,2013-06-02 19:42:00,
2013-06-02 15:52:00,58.0,49.0,29.83,SW,221,11.0,-999.0,71,-99.99,,,-99.99,,2013-06-02 19:52:00,
2013-06-02 16:02:00,59.0,51.0,29.83,WNW,293,11.0,-999.0,74,-99.99,,,-99.99,,2013-06-02 20:02:00,
2013-06-02 16:11:00,59.0,51.0,29.83,WNW,293,11.0,-999.0,74,-99.99,,,-99.99,,2013-06-02 20:11:00,
2013-06-02 16:22:00,60.0,53.0,29.83,WSW,248,9.0,-999.0,77,-99.99,,,-99.99,,2013-06-02 20:22:00,
2013-06-02 16:32:00,59.0,54.0,29.82,SW,215,11.0,-999.0,84,-99.99,,,-99.99,,2013-06-02 20:32:00,
2013-06-02 16:42:00,59.0,54.0,29.82,SW,215,11.0,-999.0,84,-99.99,,,-99.99,,2013-06-02 20:42:00,
2013-06-02 16:52:00,59.0,51.0,29.82,SW,224,12.0,-999.0,76,-99.99,,,-99.99,,2013-06-02 20:52:00,
2013-06-02 17:02:00,60.0,55.0,29.82,WSW,240,13.0,-999.0,85,-99.99,,,-99.99,,2013-06-02 21:02:00,
2013-06-02 17:12:00,60.0,55.0,29.82,WSW,240,13.0,-999.0,85,-99.99,,,-99.99,,2013-06-02 21:12:00,
2013-06-02 17:21:00,60.0,56.0,29.80,WSW,240,12.0,-999.0,87,-99.99,,,-99.99,,2013-06-02 21:21:00,
2013-06-02 17:33:00,60.0,57.0,29.80,WSW,258,9.0,-999.0,90,-99.99,,,-99.99,,2013-06-02 21:33:00,
2013-06-02 17:42:00,60.0,57.0,29.80,WSW,258,9.0,-999.0,90,-99.99,,,-99.99,,2013-06-02 21:42:00,
2013-06-02 17:53:00,60.0,57.0,29.79,SW,223,10.0,-999.0,90,-99.99,,,-99.99,,2013-06-02 21:53:00,
2013-06-02 18:03:00,60.0,57.0,29.78,SW,222,8.0,-999.0,91,-99.99,,,-99.99,,2013-06-02 22:03:00,
2013-06-02 18:12:00,60.0,57.0,29.78,SW,222,8.0,-999.0,91,-99.99,,,-99.99,,2013-06-02 22:12:00,
2013-06-02 18:23:00,60.0,57.0,29.79,SW,231,7.0,-999.0,91,-99.99,,,-99.99,,2013-06-02 22:23:00,
2013-06-02 18:33:00,59.0,56.0,29.80,SW,223,7.0,-999.0,89,-99.99,,,-99.99,,2013-06-02 22:33:00,
2013-06-02 18:42:00,59.0,56.0,29.80,SW,223,7.0,-999.0,89,-99.99,,,-99.99,,2013-06-02 22:42:00,
2013-06-02 18:52:00,59.0,56.0,29.80,WSW,241,5.0,-999.0,89,-99.99,,,-99.99,,2013-06-02 22:52:00,
2013-06-02 19:02:00,58.0,54.0,29.81,WSW,251,4.0,-999.0,85,-99.99,,,-99.99,,2013-06-02 23:02:00,
2013-06-02 19:12:00,58.0,54.0,29.81,WSW,251,4.0,-999.0,85,-99.99,,,-99.99,,2013-06-02 23:12:00,
2013-06-02 19:22:00,58.0,52.0,29.81,WSW,252,3.0,-999.0,80,-99.99,,,-99.99,,2013-06-02 23:22:00,
2013-06-02 19:32:00,58.0,51.0,29.81,WSW,248,1.0,-999.0,78,-99.99,,,-99.99,,2013-06-02 23:32:00,
2013-06-02 19:42:00,58.0,51.0,29.81,WSW,248,1.0,-999.0,78,-99.99,,,-99.99,,2013-06-02 23:42:00,
2013-06-02 19:52:00,58.0,51.0,29.81,WSW,252,2.0,-999.0,78,-99.99,,,-99.99,,2013-06-02 23:52:00,
2013-06-02 20:01:00,58.0,51.0,29.82,West,272,3.0,-999.0,77,-99.99,,,-99.99,,2013-06-03 00:01:00,
2013-06-02 20:12:00,58.0,50.0,29.82,SW,234,4.0,-999.0,74,-99.99,,,-99.99,,2013-06-03 00:12:00,
2013-06-02 20:22:00,58.0,50.0,29.82,SW,234,4.0,-999.0,74,-99.99,,,-99.99,,2013-06-03 00:22:00,
2013-06-02 20:32:00,58.0,49.0,29.83,WSW,240,6.0,-999.0,73,-99.99,,,-99.99,,2013-06-03 00:32:00,
2013-06-02 20:42:00,58.0,49.0,29.83,WSW,240,6.0,-999.0,73,-99.99,,,-99.99,,2013-06-03 00:42:00,
2013-06-02 20:52:00,58.0,49.0,29.83,SW,235,4.0,-999.0,72,-99.99,,,-99.99,,2013-06-03 00:52:00,
2013-06-02 21:01:00,58.0,49.0,29.83,SW,227,5.0,-999.0,71,-99.99,,,-99.99,,2013-06-03 01:01:00,
2013-06-02 21:11:00,58.0,49.0,29.83,SW,227,5.0,-999.0,71,-99.99,,,-99.99,,2013-06-03 01:11:00,
2013-06-02 21:21:00,57.0,48.0,29.83,WSW,251,4.0,-999.0,71,-99.99,,,-99.99,,2013-06-03 01:21:00,
2013-06-02 21:32:00,57.0,48.0,29.84,West,263,5.0,-999.0,72,-99.99,,,-99.99,,2013-06-03 01:32:00,
2013-06-02 21:42:00,57.0,48.0,29.84,West,263,5.0,-999.0,72,-99.99,,,-99.99,,2013-06-03 01:42:00,
2013-06-02 21:52:00,56.0,46.0,29.84,SW,234,4.0,-999.0,70,-99.99,,,-99.99,,2013-06-03 01:52:00,
2013-06-02 22:02:00,56.0,46.0,29.85,SW,227,5.0,-999.0,70,-99.99,,,-99.99,,2013-06-03 02:02:00,
2013-06-02 22:12:00,56.0,46.0,29.85,SW,227,5.0,-999.0,70,-99.99,,,-99.99,,2013-06-03 02:12:00,
2013-06-02 22:22:00,56.0,46.0,29.85,SW,234,6.0,-999.0,69,-99.99,,,-99.99,,2013-06-03 02:22:00,
2013-06-02 22:32:00,56.0,46.0,29.85,WSW,244,5.0,-999.0,69,-99.99,,,-99.99,,2013-06-03 02:32:00,
2013-06-02 22:42:00,56.0,46.0,29.85,WSW,244,5.0,-999.0,69,-99.99,,,-99.99,,2013-06-03 02:42:00,
2013-06-02 22:52:00,56.0,46.0,29.86,SW,232,6.0,-999.0,69,-99.99,,,-99.99,,2013-06-03 02:52:00,
2013-06-02 23:02:00,55.0,45.0,29.85,West,277,5.0,-999.0,70,-99.99,,,-99.99,,2013-06-03 03:02:00,
2013-06-02 23:12:00,55.0,45.0,29.85,West,277,5.0,-999.0,70,-99.99,,,-99.99,,2013-06-03 03:12:00,
2013-06-02 23:22:00,55.0,45.0,29.85,WSW,250,5.0,-999.0,70,-99.99,,,-99.99,,2013-06-03 03:22:00,
2013-06-02 23:33:00,55.0,45.0,29.85,West,265,8.0,-999.0,69,-99.99,,,-99.99,,2013-06-03 03:33:00,
2013-06-02 23:43:00,55.0,45.0,29.85,West,265,8.0,-999.0,69,-99.99,,,-99.99,,2013-06-03 03:43:00,
2013-06-02 23:53:00,54.0,44.0,29.85,WSW,238,7.0,-999.0,69,-99.99,,,-99.99,,2013-06-03 03:53:00,